Time,TemperatureF,DewpointF,PressureIn,WindDirection,WindDirectionDegrees,WindSpeedMPH,WindSpeedGustMPH,Humidity,HourlyPrecipIn,Conditions,Clouds,dailyrainin,SoftwareType,DateUTC
2013-03-13 00:00:00,47.5,31.7,29.96,WNW,302,2.0,2.0,54,0.00,,,0.00,Wunderground v.1.15,2013-03-13 04:00:00,
2013-03-13 00:10:00,47.3,31.5,29.97,WNW,288,2.0,2.0,54,0.00,,,0.00,Wunderground v.1.15,2013-03-13 04:10:00,
2013-03-13 00:15:00,47.2,31.4,29.97,West,271,1.0,2.0,54,0.00,,,0.00,Wunderground v.1.15,2013-03-13 04:15:00,
2013-03-13 00:20:00,47.0,31.7,29.97,WNW,290,1.0,1.0,55,0.00,,,0.00,Wunderground v.1.15,2013-03-13 04:20:00,
2013-03-13 00:25:00,46.8,31.9,29.97,West,273,1.0,1.0,56,0.00,,,0.00,Wunderground v.1.15,2013-03-13 04:25:00,
2013-03-13 00:30:00,46.5,32.1,29.97,West,273,1.0,1.0,57,0.00,,,0.00,Wunderground v.1.15,2013-03-13 04:30:00,
2013-03-13 00:35:00,46.3,31.0,29.98,WNW,284,1.0,1.0,55,0.00,,,0.00,Wunderground v.1.15,2013-03-13 04:35:00,
2013-03-13 00:40:00,46.2,30.9,29.98,South,184,1.0,1.0,55,0.00,,,0.00,Wunderground v.1.15,2013-03-13 04:40:00,
2013-03-13 00:45:00,46.1,31.3,29.98,WNW,290,1.0,1.0,56,0.00,,,0.00,Wunderground v.1.15,2013-03-13 04:45:00,
2013-03-13 00:50:00,45.9,31.5,29.98,NW,317,0.0,0.0,57,0.00,,,0.00,Wunderground v.1.15,2013-03-13 04:50:00,
2013-03-13 00:55:00,45.6,31.2,29.98,West,280,0.0,0.0,57,0.00,,,0.00,Wunderground v.1.15,2013-03-13 04:55:00,
2013-03-13 01:00:00,45.4,31.5,29.98,SSW,205,0.0,0.0,58,0.00,,,0.00,Wunderground v.1.15,2013-03-13 05:00:00,
2013-03-13 01:05:00,45.3,31.8,29.98,WSW,239,0.0,0.0,59,0.00,,,0.00,Wunderground v.1.15,2013-03-13 05:05:00,
2013-03-13 01:10:00,45.1,32.0,29.98,WSW,239,0.0,0.0,60,0.00,,,0.00,Wunderground v.1.15,2013-03-13 05:10:00,
2013-03-13 01:15:00,44.9,31.4,29.98,West,275,0.0,0.0,59,0.00,,,0.00,Wunderground v.1.15,2013-03-13 05:15:00,
2013-03-13 01:20:00,44.7,30.8,29.98,West,281,0.0,0.0,58,0.00,,,0.00,Wunderground v.1.15,2013-03-13 05:20:00,
2013-03-13 01:25:00,44.6,31.6,29.98,WNW,285,0.0,0.0,60,0.00,,,0.00,Wunderground v.1.15,2013-03-13 05:25:00,
2013-03-13 01:30:00,44.4,31.4,29.99,West,278,0.0,0.0,60,0.00,,,0.00,Wunderground v.1.15,2013-03-13 05:30:00,
2013-03-13 01:35:00,44.3,31.3,29.99,West,278,0.0,0.0,60,0.00,,,0.00,Wunderground v.1.15,2013-03-13 05:35:00,
2013-03-13 01:40:00,44.2,31.6,29.99,NW,309,0.0,0.0,61,0.00,,,0.00,Wunderground v.1.15,2013-03-13 05:40:00,
2013-03-13 01:50:00,44.0,31.4,29.99,WNW,288,0.0,0.0,61,0.00,,,0.00,Wunderground v.1.15,2013-03-13 05:50:00,
2013-03-13 01:55:00,43.8,31.2,29.99,WNW,288,0.0,0.0,61,0.00,,,0.00,Wunderground v.1.15,2013-03-13 05:55:00,
2013-03-13 02:00:00,43.8,31.6,29.99,ESE,121,0.0,0.0,62,0.00,,,0.00,Wunderground v.1.15,2013-03-13 06:00:00,
2013-03-13 02:05:00,43.6,31.4,30.00,West,277,0.0,0.0,62,0.00,,,0.00,Wunderground v.1.15,2013-03-13 06:05:00,
2013-03-13 02:10:00,43.4,31.2,30.00,West,271,0.0,0.0,62,0.00,,,0.00,Wunderground v.1.15,2013-03-13 06:10:00,
2013-03-13 02:15:00,43.3,31.9,30.00,West,269,0.0,0.0,64,0.00,,,0.00,Wunderground v.1.15,2013-03-13 06:15:00,
2013-03-13 02:20:00,43.1,31.7,30.00,West,272,0.0,0.0,64,0.00,,,0.00,Wunderground v.1.15,2013-03-13 06:20:00,
2013-03-13 02:25:00,42.9,31.9,30.00,West,272,0.0,0.0,65,0.00,,,0.00,Wunderground v.1.15,2013-03-13 06:25:00,
2013-03-13 02:30:00,42.7,31.7,30.00,WNW,285,0.0,0.0,65,0.00,,,0.00,Wunderground v.1.15,2013-03-13 06:30:00,
2013-03-13 02:40:00,42.3,31.4,30.00,WSW,239,0.0,0.0,65,0.00,,,0.00,Wunderground v.1.15,2013-03-13 06:40:00,
2013-03-13 02:50:00,42.2,31.6,30.00,WSW,238,0.0,0.0,66,0.00,,,0.00,Wunderground v.1.15,2013-03-13 06:50:00,
2013-03-13 02:55:00,42.0,31.5,30.00,WSW,242,0.0,0.0,66,0.00,,,0.00,Wunderground v.1.15,2013-03-13 06:55:00,
2013-03-13 03:00:00,42.0,31.8,30.00,WSW,250,0.0,0.0,67,0.00,,,0.00,Wunderground v.1.15,2013-03-13 07:00:00,
2013-03-13 03:05:00,41.9,32.5,30.00,NW,315,0.0,0.0,69,0.00,,,0.00,Wunderground v.1.15,2013-03-13 07:05:00,
2013-03-13 03:10:00,41.7,31.5,30.01,NW,315,0.0,0.0,67,0.00,,,0.00,Wunderground v.1.15,2013-03-13 07:10:00,
2013-03-13 03:15:00,41.5,31.7,30.00,NW,315,0.0,0.0,68,0.00,,,0.00,Wunderground v.1.15,2013-03-13 07:15:00,
2013-03-13 03:20:00,41.3,31.9,30.00,NW,314,0.0,0.0,69,0.00,,,0.00,Wunderground v.1.15,2013-03-13 07:20:00,
2013-03-13 03:25:00,41.1,31.7,30.01,NNW,342,0.0,0.0,69,0.00,,,0.00,Wunderground v.1.15,2013-03-13 07:25:00,
2013-03-13 03:30:00,40.9,31.5,30.01,West,277,0.0,0.0,69,0.00,,,0.00,Wunderground v.1.15,2013-03-13 07:30:00,
2013-03-13 03:35:00,40.8,31.8,30.01,West,275,0.0,0.0,70,0.00,,,0.00,Wunderground v.1.15,2013-03-13 07:35:00,
2013-03-13 03:40:00,40.7,31.3,30.00,West,277,0.0,0.0,69,0.00,,,0.00,Wunderground v.1.15,2013-03-13 07:40:00,
2013-03-13 03:45:00,40.6,31.6,30.00,West,277,0.0,0.0,70,0.00,,,0.00,Wunderground v.1.15,2013-03-13 07:45:00,
2013-03-13 03:50:00,40.4,31.4,30.00,WNW,296,0.0,0.0,70,0.00,,,0.00,Wunderground v.1.15,2013-03-13 07:50:00,
2013-03-13 03:55:00,40.3,31.3,30.00,WNW,290,0.0,0.0,70,0.00,,,0.00,Wunderground v.1.15,2013-03-13 07:55:00,
2013-03-13 04:00:00,40.2,31.2,30.00,WNW,290,0.0,0.0,70,0.00,,,0.00,Wunderground v.1.15,2013-03-13 08:00:00,
2013-03-13 04:10:00,39.8,31.2,30.01,WNW,290,0.0,0.0,71,0.00,,,0.00,Wunderground v.1.15,2013-03-13 08:10:00,
2013-03-13 04:15:00,39.7,31.1,30.01,WNW,290,0.0,0.0,71,0.00,,,0.00,Wunderground v.1.15,2013-03-13 08:15:00,
2013-03-13 04:20:00,39.6,31.0,30.01,WNW,290,0.0,0.0,71,0.00,,,0.00,Wunderground v.1.15,2013-03-13 08:20:00,
2013-03-13 04:30:00,39.3,31.0,30.01,WNW,290,0.0,0.0,72,0.00,,,0.00,Wunderground v.1.15,2013-03-13 08:30:00,
2013-03-13 04:35:00,39.1,30.8,30.01,WNW,290,0.0,0.0,72,0.00,,,0.00,Wunderground v.1.15,2013-03-13 08:35:00,
2013-03-13 04:40:00,38.9,31.0,30.01,WNW,290,0.0,0.0,73,0.00,,,0.00,Wunderground v.1.15,2013-03-13 08:40:00,
2013-03-13 04:45:00,38.6,30.7,30.01,WNW,290,0.0,0.0,73,0.00,,,0.00,Wunderground v.1.15,2013-03-13 08:45:00,
2013-03-13 04:50:00,38.3,30.7,30.01,WNW,290,0.0,0.0,74,0.00,,,0.00,Wunderground v.1.15,2013-03-13 08:50:00,
2013-03-13 04:55:00,38.0,30.8,30.01,WNW,290,0.0,0.0,75,0.00,,,0.00,Wunderground v.1.15,2013-03-13 08:55:00,
2013-03-13 05:00:00,37.7,30.8,30.01,WNW,290,0.0,0.0,76,0.00,,,0.00,Wunderground v.1.15,2013-03-13 09:00:00,
2013-03-13 05:05:00,37.4,30.5,30.01,WNW,290,0.0,0.0,76,0.00,,,0.00,Wunderground v.1.15,2013-03-13 09:05:00,
2013-03-13 05:10:00,37.1,30.6,30.02,WNW,290,0.0,0.0,77,0.00,,,0.00,Wunderground v.1.15,2013-03-13 09:10:00,
2013-03-13 05:15:00,36.9,30.4,30.02,WNW,290,0.0,0.0,77,0.00,,,0.00,Wunderground v.1.15,2013-03-13 09:15:00,
2013-03-13 05:20:00,36.6,30.7,30.02,WNW,290,0.0,0.0,79,0.00,,,0.00,Wunderground v.1.15,2013-03-13 09:20:00,
2013-03-13 05:30:00,36.2,30.6,30.02,WNW,290,0.0,0.0,80,0.00,,,0.00,Wunderground v.1.15,2013-03-13 09:30:00,
2013-03-13 05:35:00,36.0,30.4,30.02,WNW,290,0.0,0.0,80,0.00,,,0.00,Wunderground v.1.15,2013-03-13 09:35:00,
2013-03-13 05:40:00,35.7,30.4,30.02,WNW,290,0.0,0.0,81,0.00,,,0.00,Wunderground v.1.15,2013-03-13 09:40:00,
2013-03-13 05:45:00,35.5,30.5,30.02,WNW,290,0.0,0.0,82,0.00,,,0.00,Wunderground v.1.15,2013-03-13 09:45:00,
2013-03-13 05:50:00,35.2,30.3,30.03,WNW,290,0.0,0.0,82,0.00,,,0.00,Wunderground v.1.15,2013-03-13 09:50:00,
2013-03-13 05:55:00,35.0,30.4,30.03,WNW,290,0.0,0.0,83,0.00,,,0.00,Wunderground v.1.15,2013-03-13 09:55:00,
2013-03-13 06:00:00,34.7,30.4,30.03,WNW,290,0.0,0.0,84,0.00,,,0.00,Wunderground v.1.15,2013-03-13 10:00:00,
2013-03-13 06:10:00,34.3,30.3,30.03,WNW,290,0.0,0.0,85,0.00,,,0.00,Wunderground v.1.15,2013-03-13 10:10:00,
2013-03-13 06:20:00,33.8,29.8,30.03,WNW,290,0.0,0.0,85,0.00,,,0.00,Wunderground v.1.15,2013-03-13 10:20:00,
2013-03-13 06:25:00,33.7,30.0,30.03,WNW,290,0.0,0.0,86,0.00,,,0.00,Wunderground v.1.15,2013-03-13 10:25:00,
2013-03-13 06:30:00,33.5,29.8,30.03,WNW,290,0.0,0.0,86,0.00,,,0.00,Wunderground v.1.15,2013-03-13 10:30:00,
2013-03-13 06:35:00,33.4,29.7,30.04,WNW,290,0.0,0.0,86,0.00,,,0.00,Wunderground v.1.15,2013-03-13 10:35:00,
2013-03-13 06:40:00,33.3,29.6,30.04,WNW,290,0.0,0.0,86,0.00,,,0.00,Wunderground v.1.15,2013-03-13 10:40:00,
2013-03-13 06:45:00,33.1,29.7,30.04,WNW,290,0.0,0.0,87,0.00,,,0.00,Wunderground v.1.15,2013-03-13 10:45:00,
2013-03-13 06:50:00,32.9,29.5,30.04,WNW,290,0.0,0.0,87,0.00,,,0.00,Wunderground v.1.15,2013-03-13 10:50:00,
2013-03-13 06:55:00,32.8,29.4,30.04,WNW,290,0.0,0.0,87,0.00,,,0.00,Wunderground v.1.15,2013-03-13 10:55:00,
2013-03-13 07:00:00,32.6,29.2,30.05,WNW,290,0.0,0.0,87,0.00,,,0.00,Wunderground v.1.15,2013-03-13 11:00:00,
2013-03-13 07:05:00,32.4,29.0,30.05,WNW,290,0.0,0.0,87,0.00,,,0.00,Wunderground v.1.15,2013-03-13 11:05:00,
2013-03-13 07:10:00,32.2,29.0,30.05,WNW,290,0.0,0.0,88,0.00,,,0.00,Wunderground v.1.15,2013-03-13 11:10:00,
2013-03-13 07:15:00,32.1,28.9,30.05,WNW,290,0.0,0.0,88,0.00,,,0.00,Wunderground v.1.15,2013-03-13 11:15:00,
2013-03-13 07:20:00,32.0,29.1,30.05,WNW,290,0.0,0.0,89,0.00,,,0.00,Wunderground v.1.15,2013-03-13 11:20:00,
2013-03-13 07:30:00,32.0,29.4,30.05,WNW,290,0.0,0.0,90,0.00,,,0.00,Wunderground v.1.15,2013-03-13 11:30:00,
2013-03-13 07:40:00,31.9,29.0,30.06,WNW,290,0.0,0.0,89,0.00,,,0.00,Wunderground v.1.15,2013-03-13 11:40:00,
2013-03-13 07:45:00,31.8,28.9,30.06,WNW,290,0.0,0.0,89,0.00,,,0.00,Wunderground v.1.15,2013-03-13 11:45:00,
2013-03-13 07:50:00,31.7,29.1,30.06,WNW,290,0.0,0.0,90,0.00,,,0.00,Wunderground v.1.15,2013-03-13 11:50:00,
2013-03-13 07:55:00,31.7,29.1,30.06,WNW,290,0.0,0.0,90,0.00,,,0.00,Wunderground v.1.15,2013-03-13 11:55:00,
2013-03-13 08:00:00,31.7,29.4,30.06,WNW,290,0.0,0.0,91,0.00,,,0.00,Wunderground v.1.15,2013-03-13 12:00:00,
2013-03-13 08:10:00,32.2,29.9,30.06,WNW,290,0.0,0.0,91,0.00,,,0.00,Wunderground v.1.15,2013-03-13 12:10:00,
2013-03-13 08:15:00,32.6,30.5,30.06,WNW,290,0.0,0.0,92,0.00,,,0.00,Wunderground v.1.15,2013-03-13 12:15:00,
2013-03-13 08:20:00,33.4,31.3,30.06,WNW,290,0.0,0.0,92,0.00,,,0.00,Wunderground v.1.15,2013-03-13 12:20:00,
2013-03-13 08:25:00,34.1,31.7,30.06,WNW,290,0.0,0.0,91,0.00,,,0.00,Wunderground v.1.15,2013-03-13 12:25:00,
2013-03-13 08:30:00,34.5,31.9,30.06,WNW,290,0.0,0.0,90,0.00,,,0.00,Wunderground v.1.15,2013-03-13 12:30:00,
2013-03-13 08:35:00,34.8,31.9,30.06,WNW,290,0.0,0.0,89,0.00,,,0.00,Wunderground v.1.15,2013-03-13 12:35:00,
2013-03-13 08:40:00,35.1,31.9,30.06,WNW,290,0.0,0.0,88,0.00,,,0.00,Wunderground v.1.15,2013-03-13 12:40:00,
2013-03-13 08:45:00,35.7,32.5,30.06,WNW,290,0.0,0.0,88,0.00,,,0.00,Wunderground v.1.15,2013-03-13 12:45:00,
2013-03-13 08:50:00,36.2,32.7,30.06,WNW,290,0.0,0.0,87,0.00,,,0.00,Wunderground v.1.15,2013-03-13 12:50:00,
2013-03-13 08:55:00,36.7,33.2,30.06,WNW,290,0.0,0.0,87,0.00,,,0.00,Wunderground v.1.15,2013-03-13 12:55:00,
2013-03-13 09:00:00,37.2,33.1,30.06,WNW,290,0.0,0.0,85,0.00,,,0.00,Wunderground v.1.15,2013-03-13 13:00:00,
2013-03-13 09:05:00,37.8,33.7,30.06,WNW,290,0.0,0.0,85,0.00,,,0.00,Wunderground v.1.15,2013-03-13 13:05:00,
2013-03-13 09:10:00,38.4,34.0,30.07,WNW,290,0.0,0.0,84,0.00,,,0.00,Wunderground v.1.15,2013-03-13 13:10:00,
2013-03-13 09:15:00,38.9,33.6,30.07,WNW,290,0.0,0.0,81,0.00,,,0.00,Wunderground v.1.15,2013-03-13 13:15:00,
2013-03-13 09:20:00,39.6,33.6,30.07,WNW,290,0.0,0.0,79,0.00,,,0.00,Wunderground v.1.15,2013-03-13 13:20:00,
2013-03-13 09:25:00,40.4,33.8,30.06,SW,232,0.0,0.0,77,0.00,,,0.00,Wunderground v.1.15,2013-03-13 13:25:00,
2013-03-13 09:30:00,41.0,33.7,30.06,SW,232,0.0,0.0,75,0.00,,,0.00,Wunderground v.1.15,2013-03-13 13:30:00,
2013-03-13 09:35:00,41.6,33.6,30.06,SW,232,0.0,0.0,73,0.00,,,0.00,Wunderground v.1.15,2013-03-13 13:35:00,
2013-03-13 09:40:00,42.3,33.2,30.06,SW,232,0.0,0.0,70,0.00,,,0.00,Wunderground v.1.15,2013-03-13 13:40:00,
2013-03-13 09:45:00,42.8,33.3,30.06,SSW,204,0.0,2.0,69,0.00,,,0.00,Wunderground v.1.15,2013-03-13 13:45:00,
2013-03-13 09:50:00,43.5,32.5,30.06,West,272,0.0,0.0,65,0.00,,,0.00,Wunderground v.1.15,2013-03-13 13:50:00,
2013-03-13 09:55:00,44.1,32.7,30.06,West,272,0.0,0.0,64,0.00,,,0.00,Wunderground v.1.15,2013-03-13 13:55:00,
2013-03-13 10:00:00,44.8,32.2,30.06,West,272,0.0,0.0,61,0.00,,,0.00,Wunderground v.1.15,2013-03-13 14:00:00,
2013-03-13 10:05:00,45.4,31.5,30.06,West,279,0.0,3.0,58,0.00,,,0.00,Wunderground v.1.15,2013-03-13 14:05:00,
2013-03-13 10:10:00,46.0,30.7,30.06,SSW,198,1.0,1.0,55,0.00,,,0.00,Wunderground v.1.15,2013-03-13 14:10:00,
2013-03-13 10:15:00,46.5,30.3,30.06,SW,230,1.0,1.0,53,0.00,,,0.00,Wunderground v.1.15,2013-03-13 14:15:00,
2013-03-13 10:20:00,46.9,29.7,30.06,West,264,1.0,1.0,51,0.00,,,0.00,Wunderground v.1.15,2013-03-13 14:20:00,
2013-03-13 10:25:00,47.1,30.8,30.06,West,275,1.0,1.0,53,0.00,,,0.00,Wunderground v.1.15,2013-03-13 14:25:00,
2013-03-13 10:30:00,47.4,31.1,30.07,South,188,1.0,1.0,53,0.00,,,0.00,Wunderground v.1.15,2013-03-13 14:30:00,
2013-03-13 10:35:00,47.8,30.0,30.07,West,271,1.0,1.0,50,0.00,,,0.00,Wunderground v.1.15,2013-03-13 14:35:00,
2013-03-13 10:40:00,48.2,28.4,30.07,WNW,283,2.0,2.0,46,0.00,,,0.00,Wunderground v.1.15,2013-03-13 14:40:00,
2013-03-13 10:45:00,48.3,29.0,30.07,WNW,298,2.0,2.0,47,0.00,,,0.00,Wunderground v.1.15,2013-03-13 14:45:00,
2013-03-13 10:50:00,48.6,29.3,30.06,NNE,17,2.0,2.0,47,0.00,,,0.00,Wunderground v.1.15,2013-03-13 14:50:00,
2013-03-13 10:55:00,48.9,28.5,30.06,SSE,158,1.0,2.0,45,0.00,,,0.00,Wunderground v.1.15,2013-03-13 14:55:00,
2013-03-13 11:00:00,49.4,27.8,30.06,West,281,1.0,1.0,43,0.00,,,0.00,Wunderground v.1.15,2013-03-13 15:00:00,
2013-03-13 11:05:00,49.7,28.1,30.06,WNW,283,1.0,1.0,43,0.00,,,0.00,Wunderground v.1.15,2013-03-13 15:05:00,
2013-03-13 11:10:00,50.1,29.6,30.06,WNW,292,1.0,1.0,45,0.00,,,0.00,Wunderground v.1.15,2013-03-13 15:10:00,
2013-03-13 11:20:00,50.9,28.6,30.05,SW,234,1.0,1.0,42,0.00,,,0.00,Wunderground v.1.15,2013-03-13 15:20:00,
2013-03-13 11:25:00,51.0,28.1,30.05,SW,220,1.0,1.0,41,0.00,,,0.00,Wunderground v.1.15,2013-03-13 15:25:00,
2013-03-13 11:30:00,50.9,26.8,30.05,NW,306,2.0,6.0,39,0.00,,,0.00,Wunderground v.1.15,2013-03-13 15:30:00,
2013-03-13 11:40:00,51.0,28.7,30.05,WSW,253,1.0,4.0,42,0.00,,,0.00,Wunderground v.1.15,2013-03-13 15:40:00,
2013-03-13 11:45:00,51.7,28.1,30.05,NNW,332,1.0,4.0,40,0.00,,,0.00,Wunderground v.1.15,2013-03-13 15:45:00,
2013-03-13 11:50:00,52.3,29.3,30.04,SW,234,1.0,1.0,41,0.00,,,0.00,Wunderground v.1.15,2013-03-13 15:50:00,
2013-03-13 11:55:00,52.5,27.6,30.04,NW,306,2.0,2.0,38,0.00,,,0.00,Wunderground v.1.15,2013-03-13 15:55:00,
2013-03-13 12:00:00,52.5,26.9,30.04,WSW,237,3.0,4.0,37,0.00,,,0.00,Wunderground v.1.15,2013-03-13 16:00:00,
2013-03-13 12:10:00,52.3,27.4,30.04,NW,305,2.0,2.0,38,0.00,,,0.00,Wunderground v.1.15,2013-03-13 16:10:00,
2013-03-13 12:15:00,51.9,26.4,30.04,SSE,153,2.0,2.0,37,0.00,,,0.00,Wunderground v.1.15,2013-03-13 16:15:00,
2013-03-13 12:20:00,51.7,25.6,30.04,WSW,237,2.0,2.0,36,0.00,,,0.00,Wunderground v.1.15,2013-03-13 16:20:00,
2013-03-13 12:25:00,51.7,26.9,30.04,SSW,213,3.0,3.0,38,0.00,,,0.00,Wunderground v.1.15,2013-03-13 16:25:00,
2013-03-13 12:30:00,51.6,26.8,30.04,WSW,254,3.0,3.0,38,0.00,,,0.00,Wunderground v.1.15,2013-03-13 16:30:00,
2013-03-13 12:35:00,51.3,25.2,30.04,West,275,4.0,4.0,36,0.00,,,0.00,Wunderground v.1.15,2013-03-13 16:35:00,
2013-03-13 12:40:00,51.5,26.1,30.03,SW,228,3.0,3.0,37,0.00,,,0.00,Wunderground v.1.15,2013-03-13 16:40:00,
2013-03-13 12:45:00,51.5,26.7,30.03,WSW,240,3.0,3.0,38,0.00,,,0.00,Wunderground v.1.15,2013-03-13 16:45:00,
2013-03-13 12:50:00,51.8,27.0,30.03,SSE,167,3.0,6.0,38,0.00,,,0.00,Wunderground v.1.15,2013-03-13 16:50:00,
2013-03-13 12:55:00,51.8,27.0,30.03,West,271,3.0,6.0,38,0.00,,,0.00,Wunderground v.1.15,2013-03-13 16:55:00,
2013-03-13 13:00:00,52.5,26.9,30.03,West,259,3.0,3.0,37,0.00,,,0.00,Wunderground v.1.15,2013-03-13 17:00:00,
2013-03-13 13:05:00,53.1,28.1,30.02,WSW,242,2.0,3.0,38,0.00,,,0.00,Wunderground v.1.15,2013-03-13 17:05:00,
2013-03-13 13:10:00,53.8,28.8,30.03,South,184,2.0,2.0,38,0.00,,,0.00,Wunderground v.1.15,2013-03-13 17:10:00,
2013-03-13 13:15:00,53.9,27.5,30.02,WNW,303,3.0,4.0,36,0.00,,,0.00,Wunderground v.1.15,2013-03-13 17:15:00,
2013-03-13 13:20:00,53.8,27.4,30.02,SE,145,2.0,2.0,36,0.00,,,0.00,Wunderground v.1.15,2013-03-13 17:20:00,
2013-03-13 13:25:00,53.6,27.3,30.02,WSW,256,2.0,2.0,36,0.00,,,0.00,Wunderground v.1.15,2013-03-13 17:25:00,
2013-03-13 13:30:00,53.4,27.8,30.02,South,190,3.0,3.0,37,0.00,,,0.00,Wunderground v.1.15,2013-03-13 17:30:00,
2013-03-13 13:40:00,52.1,27.2,30.02,SSW,205,3.0,3.0,38,0.00,,,0.00,Wunderground v.1.15,2013-03-13 17:40:00,
2013-03-13 13:45:00,52.6,27.0,30.01,SW,228,3.0,5.0,37,0.00,,,0.00,Wunderground v.1.15,2013-03-13 17:45:00,
2013-03-13 13:50:00,52.8,27.9,30.01,West,277,3.0,3.0,38,0.00,,,0.00,Wunderground v.1.15,2013-03-13 17:50:00,
2013-03-13 14:00:00,52.0,27.8,30.01,WNW,283,3.0,3.0,39,0.00,,,0.00,Wunderground v.1.15,2013-03-13 18:00:00,
2013-03-13 14:05:00,51.5,27.9,30.00,WNW,287,3.0,3.0,40,0.00,,,0.00,Wunderground v.1.15,2013-03-13 18:05:00,
2013-03-13 14:10:00,51.3,27.8,30.00,WSW,246,1.0,2.0,40,0.00,,,0.00,Wunderground v.1.15,2013-03-13 18:10:00,
2013-03-13 14:15:00,51.3,28.4,30.00,West,269,1.0,2.0,41,0.00,,,0.00,Wunderground v.1.15,2013-03-13 18:15:00,
2013-03-13 14:20:00,51.3,27.8,29.99,West,267,2.0,2.0,40,0.00,,,0.00,Wunderground v.1.15,2013-03-13 18:20:00,
2013-03-13 14:25:00,51.2,27.1,30.00,SW,230,3.0,3.0,39,0.00,,,0.00,Wunderground v.1.15,2013-03-13 18:25:00,
2013-03-13 14:30:00,51.1,26.3,29.99,West,275,3.0,5.0,38,0.00,,,0.00,Wunderground v.1.15,2013-03-13 18:30:00,
2013-03-13 14:35:00,50.9,28.0,29.99,WNW,287,2.0,5.0,41,0.00,,,0.00,Wunderground v.1.15,2013-03-13 18:35:00,
2013-03-13 14:40:00,51.1,28.2,29.99,ENE,68,2.0,2.0,41,0.00,,,0.00,Wunderground v.1.15,2013-03-13 18:40:00,
2013-03-13 14:50:00,51.6,28.6,29.99,NW,315,1.0,5.0,41,0.00,,,0.00,Wunderground v.1.15,2013-03-13 18:50:00,
2013-03-13 14:55:00,51.5,27.3,29.98,WNW,297,2.0,7.0,39,0.00,,,0.00,Wunderground v.1.15,2013-03-13 18:55:00,
2013-03-13 15:00:00,51.2,27.7,29.98,SSW,192,2.0,2.0,40,0.00,,,0.00,Wunderground v.1.15,2013-03-13 19:00:00,
2013-03-13 15:05:00,51.5,27.3,29.98,WSW,239,2.0,2.0,39,0.00,,,0.00,Wunderground v.1.15,2013-03-13 19:05:00,
2013-03-13 15:10:00,52.0,27.8,29.98,West,279,2.0,2.0,39,0.00,,,0.00,Wunderground v.1.15,2013-03-13 19:10:00,
2013-03-13 15:15:00,52.1,27.2,29.98,WSW,254,1.0,2.0,38,0.00,,,0.00,Wunderground v.1.15,2013-03-13 19:15:00,
2013-03-13 15:20:00,52.4,26.9,29.98,West,265,2.0,5.0,37,0.00,,,0.00,Wunderground v.1.15,2013-03-13 19:20:00,
2013-03-13 15:25:00,53.1,27.5,29.97,SW,219,4.0,5.0,37,0.00,,,0.00,Wunderground v.1.15,2013-03-13 19:25:00,
2013-03-13 15:30:00,53.6,25.9,29.97,SW,229,4.0,4.0,34,0.00,,,0.00,Wunderground v.1.15,2013-03-13 19:30:00,
2013-03-13 15:35:00,53.6,27.3,29.97,SW,227,3.0,4.0,36,0.00,,,0.00,Wunderground v.1.15,2013-03-13 19:35:00,
2013-03-13 15:40:00,53.3,26.3,29.98,WSW,249,2.0,4.0,35,0.00,,,0.00,Wunderground v.1.15,2013-03-13 19:40:00,
2013-03-13 15:45:00,53.1,26.1,29.97,West,259,3.0,4.0,35,0.00,,,0.00,Wunderground v.1.15,2013-03-13 19:45:00,
2013-03-13 15:50:00,53.4,25.7,29.97,West,268,2.0,2.0,34,0.00,,,0.00,Wunderground v.1.15,2013-03-13 19:50:00,
2013-03-13 15:55:00,53.1,24.7,29.98,WSW,255,3.0,4.0,33,0.00,,,0.00,Wunderground v.1.15,2013-03-13 19:55:00,
2013-03-13 16:00:00,52.6,25.0,29.98,West,264,3.0,3.0,34,0.00,,,0.00,Wunderground v.1.15,2013-03-13 20:00:00,
2013-03-13 16:05:00,52.5,25.6,29.97,WNW,301,2.0,7.0,35,0.00,,,0.00,Wunderground v.1.15,2013-03-13 20:05:00,
2013-03-13 16:10:00,52.0,24.5,29.98,South,184,2.0,2.0,34,0.00,,,0.00,Wunderground v.1.15,2013-03-13 20:10:00,
2013-03-13 16:15:00,52.2,24.6,29.98,WNW,295,2.0,2.0,34,0.00,,,0.00,Wunderground v.1.15,2013-03-13 20:15:00,
2013-03-13 16:20:00,52.2,25.3,29.98,SW,236,2.0,2.0,35,0.00,,,0.00,Wunderground v.1.15,2013-03-13 20:20:00,
2013-03-13 16:25:00,52.5,25.6,29.98,West,278,3.0,3.0,35,0.00,,,0.00,Wunderground v.1.15,2013-03-13 20:25:00,
2013-03-13 16:30:00,52.3,24.0,29.98,West,272,3.0,3.0,33,0.00,,,0.00,Wunderground v.1.15,2013-03-13 20:30:00,
2013-03-13 16:40:00,52.6,25.0,29.98,West,277,2.0,3.0,34,0.00,,,0.00,Wunderground v.1.15,2013-03-13 20:40:00,
2013-03-13 16:45:00,52.6,23.5,29.98,WNW,299,2.0,3.0,32,0.00,,,0.00,Wunderground v.1.15,2013-03-13 20:45:00,
2013-03-13 16:50:00,52.2,23.9,29.98,West,262,3.0,3.0,33,0.00,,,0.00,Wunderground v.1.15,2013-03-13 20:50:00,
2013-03-13 16:55:00,52.1,25.3,29.98,West,262,3.0,3.0,35,0.00,,,0.00,Wunderground v.1.15,2013-03-13 20:55:00,
2013-03-13 17:00:00,51.9,24.4,29.99,West,277,1.0,1.0,34,0.00,,,0.00,Wunderground v.1.15,2013-03-13 21:00:00,
2013-03-13 17:05:00,52.0,24.5,29.99,WSW,241,2.0,5.0,34,0.00,,,0.00,Wunderground v.1.15,2013-03-13 21:05:00,
2013-03-13 17:10:00,52.4,26.2,29.99,SSE,162,3.0,10.0,36,0.00,,,0.00,Wunderground v.1.15,2013-03-13 21:10:00,
2013-03-13 17:15:00,52.6,25.0,29.99,WSW,251,3.0,10.0,34,0.00,,,0.00,Wunderground v.1.15,2013-03-13 21:15:00,
2013-03-13 17:20:00,52.6,25.7,29.99,NW,309,3.0,3.0,35,0.00,,,0.00,Wunderground v.1.15,2013-03-13 21:20:00,
2013-03-13 17:25:00,52.6,25.0,29.99,WSW,240,2.0,3.0,34,0.00,,,0.00,Wunderground v.1.15,2013-03-13 21:25:00,
2013-03-13 17:30:00,52.6,25.7,30.00,WNW,302,1.0,1.0,35,0.00,,,0.00,Wunderground v.1.15,2013-03-13 21:30:00,
2013-03-13 17:35:00,52.4,25.5,30.00,West,267,2.0,4.0,35,0.00,,,0.00,Wunderground v.1.15,2013-03-13 21:35:00,
2013-03-13 17:40:00,51.8,25.7,30.00,WNW,298,3.0,3.0,36,0.00,,,0.00,Wunderground v.1.15,2013-03-13 21:40:00,
2013-03-13 17:50:00,50.8,26.7,30.01,WNW,292,3.0,3.0,39,0.00,,,0.00,Wunderground v.1.15,2013-03-13 21:50:00,
2013-03-13 17:55:00,50.3,26.3,30.01,NNW,329,3.0,3.0,39,0.00,,,0.00,Wunderground v.1.15,2013-03-13 21:55:00,
2013-03-13 18:00:00,49.9,26.5,30.02,WNW,292,3.0,3.0,40,0.00,,,0.00,Wunderground v.1.15,2013-03-13 22:00:00,
2013-03-13 18:05:00,49.7,26.3,30.02,West,280,3.0,7.0,40,0.00,,,0.00,Wunderground v.1.15,2013-03-13 22:05:00,
2013-03-13 18:10:00,49.6,26.8,30.02,WNW,300,4.0,7.0,41,0.00,,,0.00,Wunderground v.1.15,2013-03-13 22:10:00,
2013-03-13 18:15:00,49.3,26.6,30.02,West,281,4.0,7.0,41,0.00,,,0.00,Wunderground v.1.15,2013-03-13 22:15:00,
2013-03-13 18:20:00,49.0,25.7,30.03,West,280,4.0,4.0,40,0.00,,,0.00,Wunderground v.1.15,2013-03-13 22:20:00,
2013-03-13 18:25:00,48.8,25.5,30.03,SW,218,4.0,4.0,40,0.00,,,0.00,Wunderground v.1.15,2013-03-13 22:25:00,
2013-03-13 18:30:00,48.7,25.4,30.03,West,259,3.0,3.0,40,0.00,,,0.00,Wunderground v.1.15,2013-03-13 22:30:00,
2013-03-13 18:35:00,48.6,24.7,30.03,West,269,2.0,3.0,39,0.00,,,0.00,Wunderground v.1.15,2013-03-13 22:35:00,
2013-03-13 18:40:00,48.3,24.5,30.04,SW,219,2.0,2.0,39,0.00,,,0.00,Wunderground v.1.15,2013-03-13 22:40:00,
2013-03-13 18:45:00,48.0,24.2,30.04,West,277,2.0,2.0,39,0.00,,,0.00,Wunderground v.1.15,2013-03-13 22:45:00,
2013-03-13 18:50:00,47.6,23.2,30.04,WNW,288,3.0,3.0,38,0.00,,,0.00,Wunderground v.1.15,2013-03-13 22:50:00,
2013-03-13 18:55:00,47.3,23.6,30.04,WNW,287,3.0,3.0,39,0.00,,,0.00,Wunderground v.1.15,2013-03-13 22:55:00,
2013-03-13 19:00:00,47.0,22.0,30.05,NW,306,2.0,2.0,37,0.00,,,0.00,Wunderground v.1.15,2013-03-13 23:00:00,
2013-03-13 19:05:00,46.7,22.4,30.05,West,272,2.0,2.0,38,0.00,,,0.00,Wunderground v.1.15,2013-03-13 23:05:00,
2013-03-13 19:10:00,46.4,22.1,30.05,WSW,254,2.0,2.0,38,0.00,,,0.00,Wunderground v.1.15,2013-03-13 23:10:00,
2013-03-13 19:15:00,46.2,23.2,30.05,North,360,2.0,3.0,40,0.00,,,0.00,Wunderground v.1.15,2013-03-13 23:15:00,
2013-03-13 19:20:00,45.8,23.4,30.06,WSW,242,1.0,1.0,41,0.00,,,0.00,Wunderground v.1.15,2013-03-13 23:20:00,
2013-03-13 19:30:00,45.3,22.4,30.06,WNW,285,2.0,4.0,40,0.00,,,0.00,Wunderground v.1.15,2013-03-13 23:30:00,
2013-03-13 19:35:00,45.1,23.3,30.06,West,274,1.0,4.0,42,0.00,,,0.00,Wunderground v.1.15,2013-03-13 23:35:00,
2013-03-13 19:40:00,44.7,23.0,30.07,WNW,294,2.0,6.0,42,0.00,,,0.00,Wunderground v.1.15,2013-03-13 23:40:00,
2013-03-13 19:45:00,44.6,22.9,30.07,SW,223,4.0,6.0,42,0.00,,,0.00,Wunderground v.1.15,2013-03-13 23:45:00,
2013-03-13 19:50:00,44.3,22.6,30.07,West,280,3.0,3.0,42,0.00,,,0.00,Wunderground v.1.15,2013-03-13 23:50:00,
2013-03-13 19:55:00,44.0,23.5,30.07,WNW,287,2.0,3.0,44,0.00,,,0.00,Wunderground v.1.15,2013-03-13 23:55:00,
2013-03-13 20:00:00,43.8,22.7,30.08,NW,312,1.0,3.0,43,0.00,,,0.00,Wunderground v.1.15,2013-03-14 00:00:00,
2013-03-13 20:05:00,43.6,22.5,30.08,WNW,292,1.0,4.0,43,0.00,,,0.00,Wunderground v.1.15,2013-03-14 00:05:00,
2013-03-13 20:10:00,43.4,22.4,30.08,SSW,213,1.0,1.0,43,0.00,,,0.00,Wunderground v.1.15,2013-03-14 00:10:00,
2013-03-13 20:15:00,43.1,22.6,30.08,West,277,1.0,1.0,44,0.00,,,0.00,Wunderground v.1.15,2013-03-14 00:15:00,
2013-03-13 20:20:00,42.9,21.9,30.08,WNW,299,1.0,1.0,43,0.00,,,0.00,Wunderground v.1.15,2013-03-14 00:20:00,
2013-03-13 20:25:00,42.8,22.9,30.09,West,281,1.0,1.0,45,0.00,,,0.00,Wunderground v.1.15,2013-03-14 00:25:00,
2013-03-13 20:30:00,42.5,22.1,30.09,NW,323,1.0,1.0,44,0.00,,,0.00,Wunderground v.1.15,2013-03-14 00:30:00,
2013-03-13 20:35:00,42.4,22.5,30.09,WNW,287,1.0,3.0,45,0.00,,,0.00,Wunderground v.1.15,2013-03-14 00:35:00,
2013-03-13 20:40:00,42.2,22.4,30.09,West,281,2.0,2.0,45,0.00,,,0.00,Wunderground v.1.15,2013-03-14 00:40:00,
2013-03-13 20:45:00,41.9,23.1,30.09,WNW,288,2.0,3.0,47,0.00,,,0.00,Wunderground v.1.15,2013-03-14 00:45:00,
2013-03-13 20:50:00,41.7,22.9,30.09,West,277,1.0,2.0,47,0.00,,,0.00,Wunderground v.1.15,2013-03-14 00:50:00,
2013-03-13 20:55:00,41.5,23.2,30.09,West,271,2.0,2.0,48,0.00,,,0.00,Wunderground v.1.15,2013-03-14 00:55:00,
2013-03-13 21:00:00,41.3,23.1,30.10,West,281,1.0,1.0,48,0.00,,,0.00,Wunderground v.1.15,2013-03-14 01:00:00,
2013-03-13 21:05:00,41.2,23.0,30.10,SW,217,2.0,5.0,48,0.00,,,0.00,Wunderground v.1.15,2013-03-14 01:05:00,
2013-03-13 21:10:00,41.0,22.8,30.10,West,273,3.0,3.0,48,0.00,,,0.00,Wunderground v.1.15,2013-03-14 01:10:00,
2013-03-13 21:15:00,40.9,22.7,30.10,WNW,290,2.0,3.0,48,0.00,,,0.00,Wunderground v.1.15,2013-03-14 01:15:00,
2013-03-13 21:20:00,40.7,22.5,30.10,NW,304,2.0,2.0,48,0.00,,,0.00,Wunderground v.1.15,2013-03-14 01:20:00,
2013-03-13 21:25:00,40.6,22.9,30.10,West,261,2.0,2.0,49,0.00,,,0.00,Wunderground v.1.15,2013-03-14 01:25:00,
2013-03-13 21:30:00,40.3,22.6,30.10,SSW,196,1.0,2.0,49,0.00,,,0.00,Wunderground v.1.15,2013-03-14 01:30:00,
2013-03-13 21:35:00,40.2,22.5,30.11,WNW,299,1.0,2.0,49,0.00,,,0.00,Wunderground v.1.15,2013-03-14 01:35:00,
2013-03-13 21:40:00,40.0,21.9,30.11,WNW,298,1.0,2.0,48,0.00,,,0.00,Wunderground v.1.15,2013-03-14 01:40:00,
2013-03-13 21:45:00,40.0,22.4,30.11,West,275,2.0,2.0,49,0.00,,,0.00,Wunderground v.1.15,2013-03-14 01:45:00,
2013-03-13 21:50:00,39.8,22.2,30.12,WNW,298,3.0,5.0,49,0.00,,,0.00,Wunderground v.1.15,2013-03-14 01:50:00,
2013-03-13 22:00:00,39.5,21.4,30.12,WSW,251,4.0,4.0,48,0.00,,,0.00,Wunderground v.1.15,2013-03-14 02:00:00,
2013-03-13 22:05:00,39.3,21.2,30.12,WNW,289,3.0,4.0,48,0.00,,,0.00,Wunderground v.1.15,2013-03-14 02:05:00,
2013-03-13 22:10:00,39.1,20.5,30.13,WNW,289,3.0,3.0,47,0.00,,,0.00,Wunderground v.1.15,2013-03-14 02:10:00,
2013-03-13 22:15:00,38.9,20.4,30.13,WSW,241,2.0,3.0,47,0.00,,,0.00,Wunderground v.1.15,2013-03-14 02:15:00,
2013-03-13 22:20:00,38.7,21.2,30.13,West,276,3.0,3.0,49,0.00,,,0.00,Wunderground v.1.15,2013-03-14 02:20:00,
2013-03-13 22:25:00,38.5,20.5,30.12,NNW,331,3.0,3.0,48,0.00,,,0.00,Wunderground v.1.15,2013-03-14 02:25:00,
2013-03-13 22:30:00,38.3,21.3,30.13,WNW,297,3.0,3.0,50,0.00,,,0.00,Wunderground v.1.15,2013-03-14 02:30:00,
2013-03-13 22:35:00,38.1,21.5,30.14,West,279,4.0,5.0,51,0.00,,,0.00,Wunderground v.1.15,2013-03-14 02:35:00,
2013-03-13 22:40:00,37.9,21.4,30.14,WNW,292,4.0,4.0,51,0.00,,,0.00,Wunderground v.1.15,2013-03-14 02:40:00,
2013-03-13 22:50:00,37.6,21.5,30.15,West,275,3.0,3.0,52,0.00,,,0.00,Wunderground v.1.15,2013-03-14 02:50:00,
2013-03-13 22:55:00,37.4,20.9,30.15,West,278,3.0,3.0,51,0.00,,,0.00,Wunderground v.1.15,2013-03-14 02:55:00,
2013-03-13 23:00:00,37.1,20.6,30.15,NNW,333,3.0,5.0,51,0.00,,,0.00,Wunderground v.1.15,2013-03-14 03:00:00,
2013-03-13 23:05:00,36.9,20.4,30.15,NW,309,3.0,5.0,51,0.00,,,0.00,Wunderground v.1.15,2013-03-14 03:05:00,
2013-03-13 23:10:00,36.7,20.3,30.16,West,278,3.0,3.0,51,0.00,,,0.00,Wunderground v.1.15,2013-03-14 03:10:00,
2013-03-13 23:15:00,36.5,20.5,30.16,South,173,2.0,3.0,52,0.00,,,0.00,Wunderground v.1.15,2013-03-14 03:15:00,
2013-03-13 23:20:00,36.3,20.3,30.16,West,259,2.0,5.0,52,0.00,,,0.00,Wunderground v.1.15,2013-03-14 03:20:00,
2013-03-13 23:25:00,36.2,19.8,30.15,West,279,2.0,5.0,51,0.00,,,0.00,Wunderground v.1.15,2013-03-14 03:25:00,
2013-03-13 23:30:00,36.1,19.2,30.16,NW,305,2.0,2.0,50,0.00,,,0.00,Wunderground v.1.15,2013-03-14 03:30:00,
2013-03-13 23:35:00,36.0,19.1,30.16,WNW,285,1.0,2.0,50,0.00,,,0.00,Wunderground v.1.15,2013-03-14 03:35:00,
2013-03-13 23:40:00,35.8,18.5,30.16,West,281,1.0,1.0,49,0.00,,,0.00,Wunderground v.1.15,2013-03-14 03:40:00,
2013-03-13 23:45:00,35.7,18.4,30.16,WSW,245,2.0,2.0,49,0.00,,,0.00,Wunderground v.1.15,2013-03-14 03:45:00,
2013-03-13 23:50:00,35.6,18.8,30.16,West,269,2.0,2.0,50,0.00,,,0.00,Wunderground v.1.15,2013-03-14 03:50:00,
2013-03-13 23:55:00,35.5,18.7,30.16,WNW,300,2.0,4.0,50,0.00,,,0.00,Wunderground v.1.15,2013-03-14 03:55:00,